﻿_id,日時,10分間移動積算雨量(mm),1時間移動積算雨量(mm),日雨量(mm),累計雨量(mm)
1,2022-06-06T00:00:00,0.5,1,8,8
2,2022-06-06T00:01:00,0.5,1,0,8
3,2022-06-06T00:02:00,0.5,1,0,8
4,2022-06-06T00:03:00,0.5,1,0,8
5,2022-06-06T00:04:00,0,1,0,8
6,2022-06-06T00:05:00,0.5,1.5,0.5,8.5
7,2022-06-06T00:06:00,0.5,1.5,0.5,8.5
8,2022-06-06T00:07:00,0.5,1.5,0.5,8.5
9,2022-06-06T00:08:00,0.5,1.5,0.5,8.5
10,2022-06-06T00:09:00,0.5,1.5,0.5,8.5
11,2022-06-06T00:10:00,0.5,1.5,0.5,8.5
12,2022-06-06T00:11:00,0.5,1.5,0.5,8.5
13,2022-06-06T00:12:00,1,2,1,9
14,2022-06-06T00:13:00,1,2,1,9
15,2022-06-06T00:14:00,1,2,1,9
16,2022-06-06T00:15:00,0.5,2,1,9
17,2022-06-06T00:16:00,0.5,2,1,9
18,2022-06-06T00:17:00,0.5,2,1,9
19,2022-06-06T00:18:00,0.5,2,1,9
20,2022-06-06T00:19:00,0.5,2,1,9
21,2022-06-06T00:20:00,0.5,2,1,9
22,2022-06-06T00:21:00,1,2.5,1.5,9.5
23,2022-06-06T00:22:00,0.5,2.5,1.5,9.5
24,2022-06-06T00:23:00,0.5,2.5,1.5,9.5
25,2022-06-06T00:24:00,0.5,2.5,1.5,9.5
26,2022-06-06T00:25:00,0.5,2.5,1.5,9.5
27,2022-06-06T00:26:00,0.5,2.5,1.5,9.5
28,2022-06-06T00:27:00,0.5,2.5,1.5,9.5
29,2022-06-06T00:28:00,0.5,2.5,1.5,9.5
30,2022-06-06T00:29:00,1,3,2,10
31,2022-06-06T00:30:00,1,3,2,10
32,2022-06-06T00:31:00,0.5,3,2,10
33,2022-06-06T00:32:00,0.5,3,2,10
34,2022-06-06T00:33:00,0.5,3,2,10
35,2022-06-06T00:34:00,0.5,3,2,10
36,2022-06-06T00:35:00,0.5,3,2,10
37,2022-06-06T00:36:00,0.5,3,2,10
38,2022-06-06T00:37:00,0.5,3,2,10
39,2022-06-06T00:38:00,0.5,3,2,10
40,2022-06-06T00:39:00,0,3,2,10
41,2022-06-06T00:40:00,0,3,2,10
42,2022-06-06T00:41:00,0,3,2,10
43,2022-06-06T00:42:00,0,2.5,2,10
44,2022-06-06T00:43:00,0,2.5,2,10
45,2022-06-06T00:44:00,0,2.5,2,10
46,2022-06-06T00:45:00,0,2.5,2,10
47,2022-06-06T00:46:00,0,2.5,2,10
48,2022-06-06T00:47:00,0,2.5,2,10
49,2022-06-06T00:48:00,0,2.5,2,10
50,2022-06-06T00:49:00,0,2.5,2,10
51,2022-06-06T00:50:00,0,2.5,2,10
52,2022-06-06T00:51:00,0,2.5,2,10
53,2022-06-06T00:52:00,0,2.5,2,10
54,2022-06-06T00:53:00,0,2.5,2,10
55,2022-06-06T00:54:00,0,2,2,10
56,2022-06-06T00:55:00,0,2,2,10
57,2022-06-06T00:56:00,0,2,2,10
58,2022-06-06T00:57:00,0,2,2,10
59,2022-06-06T00:58:00,0,2,2,10
60,2022-06-06T00:59:00,0,2,2,10
61,2022-06-06T01:00:00,0,2,2,10
62,2022-06-06T01:01:00,0,2,2,10
63,2022-06-06T01:02:00,0,2,2,10
64,2022-06-06T01:03:00,0,2,2,10
65,2022-06-06T01:04:00,0,2,2,10
66,2022-06-06T01:05:00,0,1.5,2,10
67,2022-06-06T01:06:00,0,1.5,2,10
68,2022-06-06T01:07:00,0,1.5,2,10
69,2022-06-06T01:08:00,0,1.5,2,10
70,2022-06-06T01:09:00,0,1.5,2,10
71,2022-06-06T01:10:00,0,1.5,2,10
72,2022-06-06T01:11:00,0,1.5,2,10
73,2022-06-06T01:12:00,0,1,2,10
74,2022-06-06T01:13:00,0,1,2,10
75,2022-06-06T01:14:00,0,1,2,10
76,2022-06-06T01:15:00,0.5,1.5,2.5,10.5
77,2022-06-06T01:16:00,0.5,1.5,2.5,10.5
78,2022-06-06T01:17:00,0.5,1.5,2.5,10.5
79,2022-06-06T01:18:00,0.5,1.5,2.5,10.5
80,2022-06-06T01:19:00,0.5,1.5,2.5,10.5
81,2022-06-06T01:20:00,0.5,1.5,2.5,10.5
82,2022-06-06T01:21:00,0.5,1,2.5,10.5
83,2022-06-06T01:22:00,0.5,1,2.5,10.5
84,2022-06-06T01:23:00,0.5,1,2.5,10.5
85,2022-06-06T01:24:00,0.5,1,2.5,10.5
86,2022-06-06T01:25:00,0,1,2.5,10.5
87,2022-06-06T01:26:00,0,1,2.5,10.5
88,2022-06-06T01:27:00,0,1,2.5,10.5
89,2022-06-06T01:28:00,0,1,2.5,10.5
90,2022-06-06T01:29:00,0,0.5,2.5,10.5
91,2022-06-06T01:30:00,0,0.5,2.5,10.5
92,2022-06-06T01:31:00,0,0.5,2.5,10.5
93,2022-06-06T01:32:00,0,0.5,2.5,10.5
94,2022-06-06T01:33:00,0,0.5,2.5,10.5
95,2022-06-06T01:34:00,0,0.5,2.5,10.5
96,2022-06-06T01:35:00,0,0.5,2.5,10.5
97,2022-06-06T01:36:00,0,0.5,2.5,10.5
98,2022-06-06T01:37:00,0,0.5,2.5,10.5
99,2022-06-06T01:38:00,0,0.5,2.5,10.5
100,2022-06-06T01:39:00,0,0.5,2.5,10.5
101,2022-06-06T01:40:00,0,0.5,2.5,10.5
102,2022-06-06T01:41:00,0,0.5,2.5,10.5
103,2022-06-06T01:42:00,0,0.5,2.5,10.5
104,2022-06-06T01:43:00,0,0.5,2.5,10.5
105,2022-06-06T01:44:00,0,0.5,2.5,10.5
106,2022-06-06T01:45:00,0,0.5,2.5,10.5
107,2022-06-06T01:46:00,0,0.5,2.5,10.5
108,2022-06-06T01:47:00,0,0.5,2.5,10.5
109,2022-06-06T01:48:00,0,0.5,2.5,10.5
110,2022-06-06T01:49:00,0,0.5,2.5,10.5
111,2022-06-06T01:50:00,0,0.5,2.5,10.5
112,2022-06-06T01:51:00,0,0.5,2.5,10.5
113,2022-06-06T01:52:00,0,0.5,2.5,10.5
114,2022-06-06T01:53:00,0,0.5,2.5,10.5
115,2022-06-06T01:54:00,0,0.5,2.5,10.5
116,2022-06-06T01:55:00,0,0.5,2.5,10.5
117,2022-06-06T01:56:00,0,0.5,2.5,10.5
118,2022-06-06T01:57:00,0,0.5,2.5,10.5
119,2022-06-06T01:58:00,0,0.5,2.5,10.5
120,2022-06-06T01:59:00,0,0.5,2.5,10.5
121,2022-06-06T02:00:00,0,0.5,2.5,10.5
122,2022-06-06T02:01:00,0,0.5,2.5,10.5
123,2022-06-06T02:02:00,0,0.5,2.5,10.5
124,2022-06-06T02:03:00,0,0.5,2.5,10.5
125,2022-06-06T02:04:00,0,0.5,2.5,10.5
126,2022-06-06T02:05:00,0,0.5,2.5,10.5
127,2022-06-06T02:06:00,0,0.5,2.5,10.5
128,2022-06-06T02:07:00,0,0.5,2.5,10.5
129,2022-06-06T02:08:00,0,0.5,2.5,10.5
130,2022-06-06T02:09:00,0,0.5,2.5,10.5
131,2022-06-06T02:10:00,0.5,1,3,11
132,2022-06-06T02:11:00,0.5,1,3,11
133,2022-06-06T02:12:00,0.5,1,3,11
134,2022-06-06T02:13:00,0.5,1,3,11
135,2022-06-06T02:14:00,0.5,1,3,11
136,2022-06-06T02:15:00,0.5,0.5,3,11
137,2022-06-06T02:16:00,0.5,0.5,3,11
138,2022-06-06T02:17:00,0.5,0.5,3,11
139,2022-06-06T02:18:00,0.5,0.5,3,11
140,2022-06-06T02:19:00,0.5,0.5,3,11
141,2022-06-06T02:20:00,0,0.5,3,11
142,2022-06-06T02:21:00,0,0.5,3,11
143,2022-06-06T02:22:00,0,0.5,3,11
144,2022-06-06T02:23:00,0,0.5,3,11
145,2022-06-06T02:24:00,0.5,1,3.5,11.5
146,2022-06-06T02:25:00,0.5,1,3.5,11.5
147,2022-06-06T02:26:00,0.5,1,3.5,11.5
148,2022-06-06T02:27:00,0.5,1,3.5,11.5
149,2022-06-06T02:28:00,0.5,1,3.5,11.5
150,2022-06-06T02:29:00,0.5,1,3.5,11.5
151,2022-06-06T02:30:00,0.5,1,3.5,11.5
152,2022-06-06T02:31:00,0.5,1,3.5,11.5
153,2022-06-06T02:32:00,0.5,1,3.5,11.5
154,2022-06-06T02:33:00,0.5,1,3.5,11.5
155,2022-06-06T02:34:00,0,1,3.5,11.5
156,2022-06-06T02:35:00,0,1,3.5,11.5
157,2022-06-06T02:36:00,0.5,1.5,4,12
158,2022-06-06T02:37:00,0.5,1.5,4,12
159,2022-06-06T02:38:00,0.5,1.5,4,12
160,2022-06-06T02:39:00,0.5,1.5,4,12
161,2022-06-06T02:40:00,0.5,1.5,4,12
162,2022-06-06T02:41:00,0.5,1.5,4,12
163,2022-06-06T02:42:00,0.5,1.5,4,12
164,2022-06-06T02:43:00,0.5,1.5,4,12
165,2022-06-06T02:44:00,0.5,1.5,4,12
166,2022-06-06T02:45:00,0.5,1.5,4,12
167,2022-06-06T02:46:00,0,1.5,4,12
168,2022-06-06T02:47:00,0,1.5,4,12
169,2022-06-06T02:48:00,0,1.5,4,12
170,2022-06-06T02:49:00,0,1.5,4,12
171,2022-06-06T02:50:00,0,1.5,4,12
172,2022-06-06T02:51:00,0.5,2,4.5,12.5
173,2022-06-06T02:52:00,0.5,2,4.5,12.5
174,2022-06-06T02:53:00,0.5,2,4.5,12.5
175,2022-06-06T02:54:00,0.5,2,4.5,12.5
176,2022-06-06T02:55:00,0.5,2,4.5,12.5
177,2022-06-06T02:56:00,0.5,2,4.5,12.5
178,2022-06-06T02:57:00,0.5,2,4.5,12.5
179,2022-06-06T02:58:00,1,2.5,5,13
180,2022-06-06T02:59:00,1,2.5,5,13
181,2022-06-06T03:00:00,1,2.5,5,13
182,2022-06-06T03:01:00,0.5,2.5,5,13
183,2022-06-06T03:02:00,0.5,2.5,5,13
184,2022-06-06T03:03:00,0.5,2.5,5,13
185,2022-06-06T03:04:00,0.5,2.5,5,13
186,2022-06-06T03:05:00,1,3,5.5,13.5
187,2022-06-06T03:06:00,1,3,5.5,13.5
188,2022-06-06T03:07:00,1,3,5.5,13.5
189,2022-06-06T03:08:00,0.5,3,5.5,13.5
190,2022-06-06T03:09:00,1,3.5,6,14
191,2022-06-06T03:10:00,1,3,6,14
192,2022-06-06T03:11:00,1,3,6,14
193,2022-06-06T03:12:00,1.5,3.5,6.5,14.5
194,2022-06-06T03:13:00,1.5,3.5,6.5,14.5
195,2022-06-06T03:14:00,1.5,3.5,6.5,14.5
196,2022-06-06T03:15:00,1.5,4,7,15
197,2022-06-06T03:16:00,1.5,4,7,15
198,2022-06-06T03:17:00,1.5,4,7,15
199,2022-06-06T03:18:00,2,4.5,7.5,15.5
200,2022-06-06T03:19:00,1.5,4.5,7.5,15.5
201,2022-06-06T03:20:00,1.5,4.5,7.5,15.5
202,2022-06-06T03:21:00,1.5,4.5,7.5,15.5
203,2022-06-06T03:22:00,1.5,5,8,16
204,2022-06-06T03:23:00,1.5,5,8,16
205,2022-06-06T03:24:00,1.5,4.5,8,16
206,2022-06-06T03:25:00,1,4.5,8,16
207,2022-06-06T03:26:00,1,4.5,8,16
208,2022-06-06T03:27:00,1,4.5,8,16
209,2022-06-06T03:28:00,0.5,4.5,8,16
210,2022-06-06T03:29:00,0.5,4.5,8,16
211,2022-06-06T03:30:00,1,5,8.5,16.5
212,2022-06-06T03:31:00,1,5,8.5,16.5
213,2022-06-06T03:32:00,0.5,5,8.5,16.5
214,2022-06-06T03:33:00,0.5,5,8.5,16.5
215,2022-06-06T03:34:00,0.5,5,8.5,16.5
216,2022-06-06T03:35:00,0.5,5,8.5,16.5
217,2022-06-06T03:36:00,0.5,4.5,8.5,16.5
218,2022-06-06T03:37:00,0.5,4.5,8.5,16.5
219,2022-06-06T03:38:00,0.5,4.5,8.5,16.5
220,2022-06-06T03:39:00,1,5,9,17
221,2022-06-06T03:40:00,0.5,5,9,17
222,2022-06-06T03:41:00,0.5,5,9,17
223,2022-06-06T03:42:00,0.5,5,9,17
224,2022-06-06T03:43:00,1,5.5,9.5,17.5
225,2022-06-06T03:44:00,1,5.5,9.5,17.5
226,2022-06-06T03:45:00,1,5.5,9.5,17.5
227,2022-06-06T03:46:00,1,5.5,9.5,17.5
228,2022-06-06T03:47:00,1,5.5,9.5,17.5
229,2022-06-06T03:48:00,1.5,6,10,18
230,2022-06-06T03:49:00,1,6,10,18
231,2022-06-06T03:50:00,1,6,10,18
232,2022-06-06T03:51:00,1,5.5,10,18
233,2022-06-06T03:52:00,1,5.5,10,18
234,2022-06-06T03:53:00,1,6,10.5,18.5
235,2022-06-06T03:54:00,1,6,10.5,18.5
236,2022-06-06T03:55:00,1,6,10.5,18.5
237,2022-06-06T03:56:00,1,6,10.5,18.5
238,2022-06-06T03:57:00,1,6,10.5,18.5
239,2022-06-06T03:58:00,1,6,11,19
240,2022-06-06T03:59:00,1,6,11,19
241,2022-06-06T04:00:00,1,6,11,19
242,2022-06-06T04:01:00,1,6,11,19
243,2022-06-06T04:02:00,1,6,11,19
244,2022-06-06T04:03:00,1,6.5,11.5,19.5
245,2022-06-06T04:04:00,1,6.5,11.5,19.5
246,2022-06-06T04:05:00,1,6,11.5,19.5
247,2022-06-06T04:06:00,1,6,11.5,19.5
248,2022-06-06T04:07:00,1,6,11.5,19.5
249,2022-06-06T04:08:00,1,6.5,12,20
250,2022-06-06T04:09:00,1,6,12,20
251,2022-06-06T04:10:00,1,6,12,20
252,2022-06-06T04:11:00,1,6,12,20
253,2022-06-06T04:12:00,1.5,6,12.5,20.5
254,2022-06-06T04:13:00,1,6,12.5,20.5
255,2022-06-06T04:14:00,1,6,12.5,20.5
256,2022-06-06T04:15:00,1,5.5,12.5,20.5
257,2022-06-06T04:16:00,1.5,6,13,21
258,2022-06-06T04:17:00,1.5,6,13,21
259,2022-06-06T04:18:00,,,,
260,2022-06-06T04:19:00,1.5,6,13.5,21.5
261,2022-06-06T04:20:00,1.5,6,13.5,21.5
262,2022-06-06T04:21:00,1.5,6,13.5,21.5
263,2022-06-06T04:22:00,1.5,6,14,22
264,2022-06-06T04:23:00,1.5,6,14,22
265,2022-06-06T04:24:00,1.5,6,14,22
266,2022-06-06T04:25:00,2,6.5,14.5,22.5
267,2022-06-06T04:26:00,1.5,6.5,14.5,22.5
268,2022-06-06T04:27:00,1.5,6.5,14.5,22.5
269,2022-06-06T04:28:00,1.5,6.5,14.5,22.5
270,2022-06-06T04:29:00,1,6.5,14.5,22.5
271,2022-06-06T04:30:00,1.5,6.5,15,23
272,2022-06-06T04:31:00,1.5,6.5,15,23
273,2022-06-06T04:32:00,1,6.5,15,23
274,2022-06-06T04:33:00,1.5,7,15.5,23.5
275,2022-06-06T04:34:00,1.5,7,15.5,23.5
276,2022-06-06T04:35:00,1.5,7.5,16,24
277,2022-06-06T04:36:00,1.5,7.5,16,24
278,2022-06-06T04:37:00,1.5,7.5,16,24
279,2022-06-06T04:38:00,1.5,7.5,16,24
280,2022-06-06T04:39:00,2,7.5,16.5,24.5
281,2022-06-06T04:40:00,1.5,7.5,16.5,24.5
282,2022-06-06T04:41:00,1.5,7.5,16.5,24.5
283,2022-06-06T04:42:00,1.5,7.5,16.5,24.5
284,2022-06-06T04:43:00,1.5,7.5,17,25
285,2022-06-06T04:44:00,1.5,7.5,17,25
286,2022-06-06T04:45:00,1,7.5,17,25
287,2022-06-06T04:46:00,1.5,8,17.5,25.5
288,2022-06-06T04:47:00,1.5,8,17.5,25.5
289,2022-06-06T04:48:00,1.5,7.5,17.5,25.5
290,2022-06-06T04:49:00,1,7.5,17.5,25.5
291,2022-06-06T04:50:00,1,7.5,17.5,25.5
292,2022-06-06T04:51:00,1.5,8,18,26
293,2022-06-06T04:52:00,1.5,8,18,26
294,2022-06-06T04:53:00,1,7.5,18,26
295,2022-06-06T04:54:00,,,,
296,2022-06-06T04:55:00,1.5,8,18.5,26.5
297,2022-06-06T04:56:00,1,8,18.5,26.5
298,2022-06-06T04:57:00,1,8,18.5,26.5
299,2022-06-06T04:58:00,1,7.5,18.5,26.5
300,2022-06-06T04:59:00,1,7.5,18.5,26.5
301,2022-06-06T05:00:00,1.5,8,19,27
302,2022-06-06T05:01:00,1,8,19,27
303,2022-06-06T05:02:00,,,,
304,2022-06-06T05:03:00,1,7.5,19,27
305,2022-06-06T05:04:00,1,7.5,19,27
306,2022-06-06T05:05:00,1,8,19.5,27.5
307,2022-06-06T05:06:00,1,8,19.5,27.5
308,2022-06-06T05:07:00,1,8,19.5,27.5
309,2022-06-06T05:08:00,1,7.5,19.5,27.5
310,2022-06-06T05:09:00,1,7.5,19.5,27.5
311,2022-06-06T05:10:00,1,8,20,28
312,2022-06-06T05:11:00,1,8,20,28
313,2022-06-06T05:12:00,1,7.5,20,28
314,2022-06-06T05:13:00,1,7.5,20,28
315,2022-06-06T05:14:00,1,7.5,20,28
316,2022-06-06T05:15:00,1,8,20.5,28.5
317,2022-06-06T05:16:00,1,7.5,20.5,28.5
318,2022-06-06T05:17:00,1,7.5,20.5,28.5
319,2022-06-06T05:18:00,1,7.5,20.5,28.5
320,2022-06-06T05:19:00,1,7,20.5,28.5
321,2022-06-06T05:20:00,0.5,7,20.5,28.5
322,2022-06-06T05:21:00,0.5,7,20.5,28.5
323,2022-06-06T05:22:00,0.5,6.5,20.5,28.5
324,2022-06-06T05:23:00,0.5,6.5,20.5,28.5
325,2022-06-06T05:24:00,0.5,6.5,20.5,28.5
326,2022-06-06T05:25:00,0,6,20.5,28.5
327,2022-06-06T05:26:00,0,6,20.5,28.5
328,2022-06-06T05:27:00,0,6,20.5,28.5
329,2022-06-06T05:28:00,0,6,20.5,28.5
330,2022-06-06T05:29:00,0,6,20.5,28.5
331,2022-06-06T05:30:00,0,5.5,20.5,28.5
332,2022-06-06T05:31:00,0.5,6,21,29
333,2022-06-06T05:32:00,0.5,6,21,29
334,2022-06-06T05:33:00,0.5,5.5,21,29
335,2022-06-06T05:34:00,0.5,5.5,21,29
336,2022-06-06T05:35:00,0.5,5,21,29
337,2022-06-06T05:36:00,0.5,5,21,29
338,2022-06-06T05:37:00,0.5,5,21,29
339,2022-06-06T05:38:00,0.5,5,21,29
340,2022-06-06T05:39:00,0.5,4.5,21,29
341,2022-06-06T05:40:00,0.5,4.5,21,29
342,2022-06-06T05:41:00,0,4.5,21,29
343,2022-06-06T05:42:00,0.5,5,21.5,29.5
344,2022-06-06T05:43:00,0.5,4.5,21.5,29.5
345,2022-06-06T05:44:00,0.5,4.5,21.5,29.5
346,2022-06-06T05:45:00,0.5,4.5,21.5,29.5
347,2022-06-06T05:46:00,0.5,4,21.5,29.5
348,2022-06-06T05:47:00,0.5,4,21.5,29.5
349,2022-06-06T05:48:00,0.5,4,21.5,29.5
350,2022-06-06T05:49:00,0.5,4,21.5,29.5
351,2022-06-06T05:50:00,0.5,4,21.5,29.5
352,2022-06-06T05:51:00,1,4,22,30
353,2022-06-06T05:52:00,0.5,4,22,30
354,2022-06-06T05:53:00,0.5,4,22,30
355,2022-06-06T05:54:00,0.5,4,22,30
356,2022-06-06T05:55:00,0.5,3.5,22,30
357,2022-06-06T05:56:00,0.5,3.5,22,30
358,2022-06-06T05:57:00,0.5,3.5,22,30
359,2022-06-06T05:58:00,0.5,3.5,22,30
360,2022-06-06T05:59:00,0.5,3.5,22,30
361,2022-06-06T06:00:00,0.5,3,22,30
362,2022-06-06T06:01:00,0,3,22,30
363,2022-06-06T06:02:00,0,3,22,30
364,2022-06-06T06:03:00,0.5,3.5,22.5,30.5
365,2022-06-06T06:04:00,0.5,3.5,22.5,30.5
366,2022-06-06T06:05:00,0.5,3,22.5,30.5
367,2022-06-06T06:06:00,0.5,3,22.5,30.5
368,2022-06-06T06:07:00,0.5,3,22.5,30.5
369,2022-06-06T06:08:00,0.5,3,22.5,30.5
370,2022-06-06T06:09:00,0.5,3,22.5,30.5
371,2022-06-06T06:10:00,0.5,2.5,22.5,30.5
372,2022-06-06T06:11:00,0.5,2.5,22.5,30.5
373,2022-06-06T06:12:00,0.5,2.5,22.5,30.5
374,2022-06-06T06:13:00,0,2.5,22.5,30.5
375,2022-06-06T06:14:00,0,2.5,22.5,30.5
376,2022-06-06T06:15:00,0,2,22.5,30.5
377,2022-06-06T06:16:00,0,2,22.5,30.5
378,2022-06-06T06:17:00,0,2,22.5,30.5
379,2022-06-06T06:18:00,0,2,22.5,30.5
380,2022-06-06T06:19:00,0.5,2.5,23,31
381,2022-06-06T06:20:00,0.5,2.5,23,31
382,2022-06-06T06:21:00,0.5,2.5,23,31
383,2022-06-06T06:22:00,0.5,2.5,23,31
384,2022-06-06T06:23:00,0.5,2.5,23,31
385,2022-06-06T06:24:00,0.5,2.5,23,31
386,2022-06-06T06:25:00,0.5,2.5,23,31
387,2022-06-06T06:26:00,0.5,2.5,23,31
388,2022-06-06T06:27:00,0.5,2.5,23,31
389,2022-06-06T06:28:00,1,3,23.5,31.5
390,2022-06-06T06:29:00,0.5,3,23.5,31.5
391,2022-06-06T06:30:00,0.5,3,23.5,31.5
392,2022-06-06T06:31:00,0.5,2.5,23.5,31.5
393,2022-06-06T06:32:00,0.5,2.5,23.5,31.5
394,2022-06-06T06:33:00,0.5,2.5,23.5,31.5
395,2022-06-06T06:34:00,0.5,2.5,23.5,31.5
396,2022-06-06T06:35:00,0.5,2.5,23.5,31.5
397,2022-06-06T06:36:00,0.5,2.5,23.5,31.5
398,2022-06-06T06:37:00,1,3,24,32
399,2022-06-06T06:38:00,0.5,3,24,32
400,2022-06-06T06:39:00,0.5,3,24,32
401,2022-06-06T06:40:00,0.5,3,24,32
402,2022-06-06T06:41:00,0.5,3,24,32
403,2022-06-06T06:42:00,0.5,2.5,24,32
404,2022-06-06T06:43:00,0.5,2.5,24,32
405,2022-06-06T06:44:00,0.5,2.5,24,32
406,2022-06-06T06:45:00,0.5,2.5,24,32
407,2022-06-06T06:46:00,0.5,2.5,24,32
408,2022-06-06T06:47:00,0.5,3,24.5,32.5
409,2022-06-06T06:48:00,0.5,3,24.5,32.5
410,2022-06-06T06:49:00,0.5,3,24.5,32.5
411,2022-06-06T06:50:00,0.5,3,24.5,32.5
412,2022-06-06T06:51:00,0.5,2.5,24.5,32.5
413,2022-06-06T06:52:00,0.5,2.5,24.5,32.5
414,2022-06-06T06:53:00,0.5,2.5,24.5,32.5
415,2022-06-06T06:54:00,0.5,2.5,24.5,32.5
416,2022-06-06T06:55:00,0.5,2.5,24.5,32.5
417,2022-06-06T06:56:00,0.5,2.5,24.5,32.5
418,2022-06-06T06:57:00,0,2.5,24.5,32.5
419,2022-06-06T06:58:00,0,2.5,24.5,32.5
420,2022-06-06T06:59:00,0,2.5,24.5,32.5
421,2022-06-06T07:00:00,0,2.5,24.5,32.5
422,2022-06-06T07:01:00,0,2.5,24.5,32.5
423,2022-06-06T07:02:00,0.5,3,25,33
424,2022-06-06T07:03:00,0.5,2.5,25,33
425,2022-06-06T07:04:00,0.5,2.5,25,33
426,2022-06-06T07:05:00,0.5,2.5,25,33
427,2022-06-06T07:06:00,0.5,2.5,25,33
428,2022-06-06T07:07:00,0.5,2.5,25,33
429,2022-06-06T07:08:00,0.5,2.5,25,33
430,2022-06-06T07:09:00,0.5,2.5,25,33
431,2022-06-06T07:10:00,0.5,2.5,25,33
432,2022-06-06T07:11:00,1,3,25.5,33.5
433,2022-06-06T07:12:00,0.5,3,25.5,33.5
434,2022-06-06T07:13:00,0.5,3,25.5,33.5
435,2022-06-06T07:14:00,0.5,3,25.5,33.5
436,2022-06-06T07:15:00,0.5,3,25.5,33.5
437,2022-06-06T07:16:00,0.5,3,25.5,33.5
438,2022-06-06T07:17:00,0.5,3,25.5,33.5
439,2022-06-06T07:18:00,0.5,3,25.5,33.5
440,2022-06-06T07:19:00,0.5,2.5,25.5,33.5
441,2022-06-06T07:20:00,0.5,2.5,25.5,33.5
442,2022-06-06T07:21:00,0,2.5,25.5,33.5
443,2022-06-06T07:22:00,0,2.5,25.5,33.5
444,2022-06-06T07:23:00,0.5,3,26,34
445,2022-06-06T07:24:00,0.5,3,26,34
446,2022-06-06T07:25:00,0.5,3,26,34
447,2022-06-06T07:26:00,0.5,3,26,34
448,2022-06-06T07:27:00,0.5,3,26,34
449,2022-06-06T07:28:00,0.5,2.5,26,34
450,2022-06-06T07:29:00,0.5,2.5,26,34
451,2022-06-06T07:30:00,0.5,2.5,26,34
452,2022-06-06T07:31:00,0.5,2.5,26,34
453,2022-06-06T07:32:00,0.5,2.5,26,34
454,2022-06-06T07:33:00,0.5,3,26.5,34.5
455,2022-06-06T07:34:00,0.5,3,26.5,34.5
456,2022-06-06T07:35:00,0.5,3,26.5,34.5
457,2022-06-06T07:36:00,0.5,3,26.5,34.5
458,2022-06-06T07:37:00,0.5,2.5,26.5,34.5
459,2022-06-06T07:38:00,0.5,2.5,26.5,34.5
460,2022-06-06T07:39:00,0.5,2.5,26.5,34.5
461,2022-06-06T07:40:00,0.5,2.5,26.5,34.5
462,2022-06-06T07:41:00,0.5,2.5,26.5,34.5
463,2022-06-06T07:42:00,0.5,2.5,26.5,34.5
464,2022-06-06T07:43:00,0,2.5,26.5,34.5
465,2022-06-06T07:44:00,0.5,3,27,35
466,2022-06-06T07:45:00,0.5,3,27,35
467,2022-06-06T07:46:00,0.5,3,27,35
468,2022-06-06T07:47:00,0.5,2.5,27,35
469,2022-06-06T07:48:00,0.5,2.5,27,35
470,2022-06-06T07:49:00,0.5,2.5,27,35
471,2022-06-06T07:50:00,0.5,2.5,27,35
472,2022-06-06T07:51:00,0.5,2.5,27,35
473,2022-06-06T07:52:00,0.5,2.5,27,35
474,2022-06-06T07:53:00,0.5,2.5,27,35
475,2022-06-06T07:54:00,0.5,3,27.5,35.5
476,2022-06-06T07:55:00,0.5,3,27.5,35.5
477,2022-06-06T07:56:00,0.5,3,27.5,35.5
478,2022-06-06T07:57:00,0.5,3,27.5,35.5
479,2022-06-06T07:58:00,0.5,3,27.5,35.5
480,2022-06-06T07:59:00,0.5,3,27.5,35.5
481,2022-06-06T08:00:00,0.5,3,27.5,35.5
482,2022-06-06T08:01:00,0.5,3,27.5,35.5
483,2022-06-06T08:02:00,0.5,2.5,27.5,35.5
484,2022-06-06T08:03:00,0.5,2.5,27.5,35.5
485,2022-06-06T08:04:00,0,2.5,27.5,35.5
486,2022-06-06T08:05:00,0,2.5,27.5,35.5
487,2022-06-06T08:06:00,0,2.5,27.5,35.5
488,2022-06-06T08:07:00,0,2.5,27.5,35.5
489,2022-06-06T08:08:00,0,2.5,27.5,35.5
490,2022-06-06T08:09:00,0,2.5,27.5,35.5
491,2022-06-06T08:10:00,0,2.5,27.5,35.5
492,2022-06-06T08:11:00,0,2,27.5,35.5
493,2022-06-06T08:12:00,0.5,2.5,28,36
494,2022-06-06T08:13:00,0.5,2.5,28,36
495,2022-06-06T08:14:00,0.5,2.5,28,36
496,2022-06-06T08:15:00,0.5,2.5,28,36
497,2022-06-06T08:16:00,0.5,2.5,28,36
498,2022-06-06T08:17:00,0.5,2.5,28,36
499,2022-06-06T08:18:00,0.5,2.5,28,36
500,2022-06-06T08:19:00,0.5,2.5,28,36
501,2022-06-06T08:20:00,0.5,2.5,28,36
502,2022-06-06T08:21:00,0.5,2.5,28,36
503,2022-06-06T08:22:00,0,2.5,28,36
504,2022-06-06T08:23:00,0,2,28,36
505,2022-06-06T08:24:00,0,2,28,36
506,2022-06-06T08:25:00,0.5,2.5,28.5,36.5
507,2022-06-06T08:26:00,0.5,2.5,28.5,36.5
508,2022-06-06T08:27:00,0.5,2.5,28.5,36.5
509,2022-06-06T08:28:00,0.5,2.5,28.5,36.5
510,2022-06-06T08:29:00,0.5,2.5,28.5,36.5
511,2022-06-06T08:30:00,0.5,2.5,28.5,36.5
512,2022-06-06T08:31:00,0.5,2.5,28.5,36.5
513,2022-06-06T08:32:00,0.5,2.5,28.5,36.5
514,2022-06-06T08:33:00,0.5,2,28.5,36.5
515,2022-06-06T08:34:00,0.5,2,28.5,36.5
516,2022-06-06T08:35:00,0.5,2.5,29,37
517,2022-06-06T08:36:00,0.5,2.5,29,37
518,2022-06-06T08:37:00,0.5,2.5,29,37
519,2022-06-06T08:38:00,0.5,2.5,29,37
520,2022-06-06T08:39:00,0.5,2.5,29,37
521,2022-06-06T08:40:00,0.5,2.5,29,37
522,2022-06-06T08:41:00,0.5,2.5,29,37
523,2022-06-06T08:42:00,0.5,2.5,29,37
524,2022-06-06T08:43:00,0.5,2.5,29,37
525,2022-06-06T08:44:00,0.5,2,29,37
526,2022-06-06T08:45:00,0.5,2.5,29.5,37.5
527,2022-06-06T08:46:00,0.5,2.5,29.5,37.5
528,2022-06-06T08:47:00,0.5,2.5,29.5,37.5
529,2022-06-06T08:48:00,0.5,2.5,29.5,37.5
530,2022-06-06T08:49:00,0.5,2.5,29.5,37.5
531,2022-06-06T08:50:00,0.5,2.5,29.5,37.5
532,2022-06-06T08:51:00,1,3,30,38
533,2022-06-06T08:52:00,1,3,30,38
534,2022-06-06T08:53:00,1,3,30,38
535,2022-06-06T08:54:00,1,2.5,30,38
536,2022-06-06T08:55:00,0.5,2.5,30,38
537,2022-06-06T08:56:00,0.5,2.5,30,38
538,2022-06-06T08:57:00,0.5,2.5,30,38
539,2022-06-06T08:58:00,0.5,2.5,30,38
540,2022-06-06T08:59:00,0.5,2.5,30,38
541,2022-06-06T09:00:00,0.5,2.5,30,38
542,2022-06-06T09:01:00,0.5,3,30.5,38.5
543,2022-06-06T09:02:00,0.5,3,30.5,38.5
544,2022-06-06T09:03:00,0.5,3,30.5,38.5
545,2022-06-06T09:04:00,0.5,3,30.5,38.5
546,2022-06-06T09:05:00,0.5,3,30.5,38.5
547,2022-06-06T09:06:00,0.5,3,30.5,38.5
548,2022-06-06T09:07:00,0.5,3,30.5,38.5
549,2022-06-06T09:08:00,0.5,3,30.5,38.5
550,2022-06-06T09:09:00,0.5,3,30.5,38.5
551,2022-06-06T09:10:00,0.5,3,30.5,38.5
552,2022-06-06T09:11:00,0,3,30.5,38.5
553,2022-06-06T09:12:00,0.5,3,31,39
554,2022-06-06T09:13:00,0.5,3,31,39
555,2022-06-06T09:14:00,0.5,3,31,39
556,2022-06-06T09:15:00,0.5,3,31,39
557,2022-06-06T09:16:00,0.5,3,31,39
558,2022-06-06T09:17:00,0.5,3,31,39
559,2022-06-06T09:18:00,0.5,3,31,39
560,2022-06-06T09:19:00,0.5,3,31,39
561,2022-06-06T09:20:00,0.5,3,31,39
562,2022-06-06T09:21:00,0.5,3,31,39
563,2022-06-06T09:22:00,0,3,31,39
564,2022-06-06T09:23:00,0,3,31,39
565,2022-06-06T09:24:00,0.5,3.5,31.5,39.5
566,2022-06-06T09:25:00,0.5,3,31.5,39.5
567,2022-06-06T09:26:00,0.5,3,31.5,39.5
568,2022-06-06T09:27:00,0.5,3,31.5,39.5
569,2022-06-06T09:28:00,0.5,3,31.5,39.5
570,2022-06-06T09:29:00,0.5,3,31.5,39.5
571,2022-06-06T09:30:00,0.5,3,31.5,39.5
572,2022-06-06T09:31:00,0.5,3,31.5,39.5
573,2022-06-06T09:32:00,0.5,3,31.5,39.5
574,2022-06-06T09:33:00,0.5,3,31.5,39.5
575,2022-06-06T09:34:00,0,3,31.5,39.5
576,2022-06-06T09:35:00,0,2.5,31.5,39.5
577,2022-06-06T09:36:00,0.5,3,32,40
578,2022-06-06T09:37:00,0.5,3,32,40
579,2022-06-06T09:38:00,0.5,3,32,40
580,2022-06-06T09:39:00,0.5,3,32,40
581,2022-06-06T09:40:00,0.5,3,32,40
582,2022-06-06T09:41:00,0.5,3,32,40
583,2022-06-06T09:42:00,0.5,3,32,40
584,2022-06-06T09:43:00,0.5,3,32,40
585,2022-06-06T09:44:00,0.5,3,32,40
586,2022-06-06T09:45:00,0.5,2.5,32,40
587,2022-06-06T09:46:00,0,2.5,32,40
588,2022-06-06T09:47:00,0.5,3,32.5,40.5
589,2022-06-06T09:48:00,0.5,3,32.5,40.5
590,2022-06-06T09:49:00,0.5,3,32.5,40.5
591,2022-06-06T09:50:00,0.5,3,32.5,40.5
592,2022-06-06T09:51:00,0.5,2.5,32.5,40.5
593,2022-06-06T09:52:00,0.5,2.5,32.5,40.5
594,2022-06-06T09:53:00,0.5,2.5,32.5,40.5
595,2022-06-06T09:54:00,0.5,2.5,32.5,40.5
596,2022-06-06T09:55:00,0.5,2.5,32.5,40.5
597,2022-06-06T09:56:00,0.5,2.5,32.5,40.5
598,2022-06-06T09:57:00,0.5,3,33,41
599,2022-06-06T09:58:00,0.5,3,33,41
600,2022-06-06T09:59:00,0.5,3,33,41
601,2022-06-06T10:00:00,0.5,3,33,41
602,2022-06-06T10:01:00,0.5,2.5,33,41
603,2022-06-06T10:02:00,0.5,2.5,33,41
604,2022-06-06T10:03:00,0.5,2.5,33,41
605,2022-06-06T10:04:00,0.5,2.5,33,41
606,2022-06-06T10:05:00,0.5,2.5,33,41
607,2022-06-06T10:06:00,0.5,2.5,33,41
608,2022-06-06T10:07:00,0.5,3,33.5,41.5
609,2022-06-06T10:08:00,0.5,3,33.5,41.5
610,2022-06-06T10:09:00,0.5,3,33.5,41.5
611,2022-06-06T10:10:00,0.5,3,33.5,41.5
612,2022-06-06T10:11:00,0.5,3,33.5,41.5
613,2022-06-06T10:12:00,0.5,2.5,33.5,41.5
614,2022-06-06T10:13:00,0.5,2.5,33.5,41.5
615,2022-06-06T10:14:00,0.5,2.5,33.5,41.5
616,2022-06-06T10:15:00,0.5,2.5,33.5,41.5
617,2022-06-06T10:16:00,0.5,2.5,33.5,41.5
618,2022-06-06T10:17:00,0,2.5,33.5,41.5
619,2022-06-06T10:18:00,0,2.5,33.5,41.5
620,2022-06-06T10:19:00,0,2.5,33.5,41.5
621,2022-06-06T10:20:00,0,2.5,33.5,41.5
622,2022-06-06T10:21:00,0.5,3,34,42
623,2022-06-06T10:22:00,0.5,3,34,42
624,2022-06-06T10:23:00,0.5,3,34,42
625,2022-06-06T10:24:00,0.5,2.5,34,42
626,2022-06-06T10:25:00,0.5,2.5,34,42
627,2022-06-06T10:26:00,0.5,2.5,34,42
628,2022-06-06T10:27:00,0.5,2.5,34,42
629,2022-06-06T10:28:00,0.5,2.5,34,42
630,2022-06-06T10:29:00,0.5,2.5,34,42
631,2022-06-06T10:30:00,0.5,2.5,34,42
632,2022-06-06T10:31:00,0,2.5,34,42
633,2022-06-06T10:32:00,0.5,3,34.5,42.5